TimeEST,TemperatureF,Dew PointF,Humidity,Sea Level PressureIn,VisibilityMPH,Wind Direction,Wind SpeedMPH,Gust SpeedMPH,PrecipitationIn,Events,Conditions,WindDirDegrees,DateUTC
12:53 AM,26.1,16.0,66,30.07,10.0,Calm,Calm,-,N/A,,Clear,0,2013-02-19 05:53:00
1:53 AM,25.0,17.1,72,30.06,10.0,Calm,Calm,-,N/A,,Clear,0,2013-02-19 06:53:00
2:53 AM,24.1,16.0,71,30.03,10.0,Calm,Calm,-,N/A,,Clear,0,2013-02-19 07:53:00
3:53 AM,26.1,18.0,71,29.99,10.0,WNW,4.6,-,N/A,,Clear,300,2013-02-19 08:53:00
4:53 AM,28.0,19.0,69,29.95,10.0,Calm,Calm,-,N/A,,Clear,0,2013-02-19 09:53:00
5:53 AM,28.9,21.9,75,29.97,10.0,WNW,4.6,-,N/A,,Overcast,290,2013-02-19 10:53:00
6:53 AM,32.0,23.0,69,29.93,10.0,SE,5.8,-,N/A,,Overcast,140,2013-02-19 11:53:00
7:53 AM,36.0,25.0,64,29.92,9.0,Calm,Calm,-,0.00,Rain,Light Rain,0,2013-02-19 12:53:00
8:53 AM,34.0,28.9,82,29.91,9.0,Calm,Calm,-,0.03,Snow,Light Snow,0,2013-02-19 13:53:00
9:16 AM,33.8,30.2,87,29.89,2.5,Calm,Calm,-,0.01,Snow,Light Snow,0,2013-02-19 14:16:00
9:23 AM,33.8,30.2,87,29.88,5.0,Calm,Calm,-,0.01,Snow,Light Snow,0,2013-02-19 14:23:00
9:53 AM,36.0,30.9,82,29.89,10.0,SSE,5.8,-,0.01,,Overcast,160,2013-02-19 14:53:00
10:00 AM,37.4,30.2,75,29.87,10.0,SSE,8.1,-,N/A,,Overcast,160,2013-02-19 15:00:00
10:53 AM,41.0,34.0,76,29.86,10.0,SSE,6.9,-,N/A,,Overcast,160,2013-02-19 15:53:00
1:53 PM,50.0,37.9,63,29.71,10.0,South,10.4,-,N/A,,Mostly Cloudy,190,2013-02-19 18:53:00
2:53 PM,53.1,36.0,52,29.67,10.0,SSW,18.4,24.2,N/A,,Partly Cloudy,200,2013-02-19 19:53:00
3:53 PM,52.0,36.0,54,29.68,10.0,SW,17.3,24.2,0.01,,Scattered Clouds,230,2013-02-19 20:53:00
4:53 PM,48.9,30.0,48,29.72,10.0,WNW,19.6,27.6,N/A,,Partly Cloudy,290,2013-02-19 21:53:00
5:53 PM,46.0,23.0,40,29.76,10.0,West,12.7,24.2,N/A,,Clear,280,2013-02-19 22:53:00
7:53 PM,42.1,21.9,45,29.82,10.0,West,19.6,34.5,N/A,,Clear,270,2013-02-20 00:53:00
8:53 PM,39.9,17.1,40,29.85,10.0,WNW,23.0,32.2,N/A,,Clear,290,2013-02-20 01:53:00
9:53 PM,39.0,15.1,38,29.86,10.0,West,17.3,34.5,N/A,,Clear,270,2013-02-20 02:53:00
10:53 PM,37.0,16.0,42,29.86,10.0,West,18.4,29.9,N/A,,Clear,270,2013-02-20 03:53:00
11:53 PM,36.0,17.1,46,29.87,10.0,West,19.6,29.9,N/A,,Scattered Clouds,270,2013-02-20 04:53:00